Regional Weather Roundup
Issued by NWS

Home | Current Version | Previous Version | Graphics & Text | Print | Product List | Glossary On
Versions: 1 2 3 4 5 6 7 8 9 10 11 12 13 14 15 16 17 18 19 20 21 22 23 24 25 26 27 28 29 30 31 32 33 34 35 36 37 38 39 40 41 42 43 44 45 46 47 48 49 50
000
ASUS43 KFSD 050602
RWRSD

WEATHER ROUNDUP FOR SOUTH DAKOTA
NATIONAL WEATHER SERVICE SIOUX FALLS SD
100 AM CDT SUN JUL 05 2015

NOTE: "FAIR" INDICATES FEW OR NO CLOUDS BELOW 12,000 FEET WITH NO
SIGNIFICANT WEATHER AND/OR OBSTRUCTIONS TO VISIBILITY.


SDZ001>005-009-010-012>017-050700-
NORTHWEST AND NORTH CENTRAL SOUTH DAKOTA

CITY           SKY/WX    TMP DP  RH WIND       PRES   REMARKS
BUFFALO          N/A     69  53  56 E8        29.74S
FAITH            N/A     72  64  76 S10       29.76F
MOBRIDGE       CLEAR     74  71  91 SE7       29.70F
$$

SDZ012>016-024>037-041>051-057-063-072>074-050700-
SOUTHWEST AND SOUTH CENTRAL SOUTH DAKOTA

CITY           SKY/WX    TMP DP  RH WIND       PRES   REMARKS
RAPID CTY ARPT PTCLDY    66  61  84 NW6       29.82S HAZE
PIERRE         PTCLDY    79  68  69 S10       29.72F
CUSTER         CLEAR     62  54  74 CALM      30.01S
ELLSWORTH AFB  PTCLDY    71  62  73 W5        29.81F
PHILIP         CLEAR     75  61  61 MISG      29.76R
PINE RIDGE     PTCLDY    70  59  68 E16G25    29.88R
WINNER         FAIR      79  64  60 S22G29    29.75F
$$

SDZ004>011-016>023-039-040-050700-
NORTHEAST SOUTH DAKOTA

CITY           SKY/WX    TMP DP  RH WIND       PRES   REMARKS
ABERDEEN       TSTM      72  68  87 E22       29.78R FOG
WATERTOWN      PTCLDY    71  64  78 S9        29.84S
BROOKINGS      PTCLDY    70  63  78 S14       29.89S
SISSETON         N/A     71  65  81 S9        29.78S
$$

SDZ017-020-022-023-036>040-048>070-050700-
SOUTHEAST SOUTH DAKOTA

CITY           SKY/WX    TMP DP  RH WIND       PRES   REMARKS
SIOUX FALLS    PTCLDY    71  62  73 S14       29.88F
HURON          CLOUDY    73  66  78 SE17G25   29.78S
MITCHELL       CLOUDY    73  66  78 S14       29.83R
YANKTON        MOCLDY    70  64  83 SE8       29.87S
$$

ABBREVIATIONS USED IN REMARKS
   TC - TEMPERATURE IN CELSIUS
  WCI - WIND CHILL INDEX
   HX - HEAT INDEX
  VSB - VISIBILITY




USA.gov is the U.S. government's official web portal to all federal, state and local government web resources and services.